[[{"header":{"parameterUnit":"m.s-1","parameterCategory":2,"la1":30.2991,"la2":30.254,"lo1":-89.0895,"lo2":-89.0444,"dy":0.0017,"dx":0.0017,"nx":28,"ny":28,"refTime":"2025-04-30T21:00:00:Z","depth":"0","parameterNumber":2,"parameterNumberName":"U-component_of_CURRENTS"},"data":[0,0,0,0,0,0,0,0,0,0,0,0,0,0,0,0,0,0,0,0,0,0,0,0,0,0,0,0,0,0,0,0,0,0,0,0,0,0,0,0,0,0,0,0,0,0,0,0,0,0,0,0,0,0,0,0,0,0,0.304,0.3041,0,0.3088,0.3088,0.3088,0.3077,0.3076,0.3076,0.3075,0.3078,0.3079,0.3079,0,0,0,0,0,0,0,0,0,0,0,0,0,0.2956,0.2957,0.304,0.3041,0.3042,0.3088,0.3088,0.3089,0.3077,0.3076,0.3076,0.3075,0.3078,0.3078,0.3079,0,0,0,0,0,0,0,0,0,0,0,0,0,0.2994,0.2958,0.304,0.3045,0.3046,0.3088,0.3088,0.3089,0.3077,0.3076,0.3075,0.3075,0.3078,0.3078,0.3079,0.3102,0,0,0.3082,0.3082,0,0,0,0,0,0,0,0,0.2991,0.2996,0.3043,0.3045,0.3046,0.3079,0.306,0.3092,0.3077,0.3061,0.3075,0.3074,0.3077,0.3078,0.3084,0.3102,0.3103,0.3082,0.3083,0.3083,0.3083,0,0,0,0,0,0,0,0.2989,0.2994,0.3055,0.3044,0.3046,0.3051,0.3054,0.3066,0.307,0.3063,0.3063,0.3074,0.3077,0.3083,0.3084,0.3103,0.3082,0.3083,0.3084,0.3084,0.3169,0.3171,0,0,0,0,0,0,0.2991,0.2992,0.3054,0.3057,0.302,0.3053,0.3057,0.3066,0.3071,0.3072,0.3075,0.3074,0.3082,0.3083,0.3084,0.3138,0.3083,0.3084,0.3084,0.3167,0.3169,0.3171,0,0,0,0,0,0,0.2989,0.2996,0.3052,0.3029,0.3036,0.3056,0.3066,0.3068,0.3079,0.3081,0.3081,0.3085,0.3082,0.3083,0.3108,0.3137,0.3084,0.3085,0.3165,0.3168,0.317,0.3229,0,0,0,0,0,0,0.2986,0.2995,0.3002,0.3029,0.3038,0.309,0.3067,0.3069,0.3089,0.3087,0.309,0.3089,0.3081,0.3107,0.3109,0.3137,0.3086,0.3163,0.3167,0.317,0.3225,0.3234,0.3241,0,0,0,0,0,0.2983,0.2998,0.3002,0.301,0.3047,0.3091,0.3097,0.3104,0.309,0.3107,0.3108,0.3089,0.3129,0.3109,0.3111,0.3141,0.3162,0.3166,0.3169,0.3222,0.3232,0.3241,0,0,0,0,0,0,0.2961,0.3,0.3004,0.3029,0.3064,0.3091,0.3108,0.3112,0.3126,0.312,0.3111,0.3111,0.3147,0.3138,0.3117,0.3176,0.3143,0.3147,0.3182,0.3192,0.3199,0.3193,0.3087,0,0,0,0,0,0.2962,0.2986,0.3024,0.3045,0.3064,0.3087,0.3104,0.3113,0.3131,0.3136,0.3138,0.3144,0.3166,0.3172,0.3188,0.3217,0.3224,0.3239,0.3247,0.3253,0.3251,0.3294,0.3305,0.3184,0.3184,0.3184,0,0,0.2959,0.2985,0.2997,0.3043,0.3067,0.3102,0.3094,0.313,0.3154,0.3135,0.3163,0.3174,0.3182,0.322,0.3234,0.3213,0.3296,0.3258,0.3263,0.3257,0.3299,0.3311,0.3322,0.3187,0.3186,0.3186,0,0,0.2971,0.2991,0.3016,0.3051,0.3098,0.3118,0.3131,0.3166,0.3178,0.3214,0.321,0.3237,0.326,0.3277,0.3286,0.3346,0.334,0.3354,0.3383,0.3426,0.3436,0.3445,0.3486,0.3498,0.3353,0.3353,0.3353,0,0.2964,0.2997,0.3032,0.307,0.3096,0.3126,0.3158,0.3186,0.3223,0.324,0.3229,0.3285,0.3288,0.334,0.336,0.3363,0.3386,0.3345,0.3436,0.3445,0.3453,0.3492,0.3504,0.3356,0.3356,0.3356,0.3355,0,0.2999,0.3025,0.3047,0.3101,0.3138,0.3172,0.322,0.3253,0.3266,0.329,0.3344,0.3359,0.3388,0.3403,0.3397,0.3463,0.3461,0.3445,0.3409,0.3468,0.3506,0.3518,0.3361,0.336,0.3359,0.3358,0,0,0.2969,0.3052,0.3055,0.3078,0.3153,0.3181,0.3242,0.3298,0.3331,0.337,0.3415,0.3457,0.3464,0.3476,0.3484,0.3516,0.3596,0.3505,0.3505,0.354,0.3699,0.3702,0.3714,0.3599,0.3601,0.3603,0.3709,0,0.2977,0.3034,0.3081,0.3129,0.3159,0.3217,0.3264,0.3323,0.3371,0.3426,0.3463,0.3507,0.3495,0.3514,0.355,0.359,0.3628,0.3569,0.364,0.3642,0.3633,0.3728,0.3661,0.375,0.372,0.3722,0.3723,0,0.2982,0.302,0.3063,0.3131,0.3149,0.3183,0.3262,0.3313,0.341,0.3452,0.3516,0.3552,0.3623,0.3593,0.3693,0.366,0.3682,0.3704,0.3708,0.3693,0.3667,0.3684,0.3772,0.3709,0.3741,0.374,0.3739,0,0.292,0.2999,0.3024,0.305,0.3139,0.3165,0.3211,0.3308,0.3373,0.3471,0.3536,0.3612,0.367,0.3714,0.3776,0.374,0.3884,0.3836,0.386,0.386,0.3807,0.3799,0.3834,0.3898,0.3898,0.3898,0.3898,0,0.2897,0.2912,0.2991,0.3003,0.3034,0.3114,0.3166,0.3235,0.3361,0.3433,0.3536,0.3621,0.3705,0.3803,0.3819,0.3902,0.3926,0.389,0.3898,0.3828,0.3821,0.3763,0.3717,0.3902,0.3901,0.39,0.39,0,0.2816,0.287,0.2898,0.2979,0.3003,0.3019,0.3141,0.3189,0.3321,0.3429,0.3471,0.3663,0.3787,0.3879,0.3974,0.3974,0.394,0.4044,0.3962,0.3958,0.3887,0.3847,0.371,0.3585,0.408,0.4081,0.4081,0,0.2779,0.2787,0.2856,0.2871,0.2901,0.2952,0.2989,0.3135,0.3209,0.3441,0.349,0.3687,0.3806,0.3998,0.4042,0.4114,0.3974,0.4072,0.3978,0.3902,0.3863,0.3664,0.3552,0.3938,0.3938,0.3938,0.3937,0,0.2716,0.2736,0.2763,0.2797,0.2826,0.2862,0.2937,0.3001,0.3169,0.3297,0.3474,0.3607,0.3838,0.3927,0.4065,0.4085,0.3901,0.4064,0.4008,0.3784,0.3546,0.3424,0.385,0.3933,0.3934,0.3934,0.3934,0.3934,0.2671,0.2674,0.2721,0.274,0.2755,0.2769,0.2775,0.2879,0.2995,0.316,0.3354,0.3519,0.3782,0.3987,0.3974,0.3973,0.3867,0.39,0.387,0.3683,0.3514,0.3938,0.4012,0.4013,0.4014,0.4015,0.4015,0,0.2665,0.2679,0.2676,0.2689,0.2657,0.27,0.2741,0.2737,0.2811,0.3008,0.3164,0.3451,0.3624,0.3783,0.3918,0.3816,0.3588,0.3734,0.3447,0.3353,0.3784,0.3733,0.3723,0.3723,0.3723,0.3723,0.3723,0.3723,0.2683,0.2682,0.2672,0.261,0.2595,0.2534,0.2533,0.2531,0.2632,0.2778,0.2941,0.3138,0.3537,0.3829,0.3815,0.3715,0.3394,0.3286,0.3196,0.3554,0.3566,0.3577,0.3519,0.3465,0.3464,0.2636,0.263,0.2626]},{"header":{"parameterUnit":"m.s-1","parameterCategory":2,"la1":30.2991,"la2":30.254,"lo1":-89.0895,"lo2":-89.0444,"dy":0.0017,"dx":0.0017,"nx":28,"ny":28,"refTime":"2025-04-30T21:00:00:Z","depth":"0","parameterNumber":3,"parameterNumberName":"V-component_of_CURRENTS"},"data":[0,0,0,0,0,0,0,0,0,0,0,0,0,0,0,0,0,0,0,0,0,0,0,0,0,0,0,0,0,0,0,0,0,0,0,0,0,0,0,0,0,0,0,0,0,0,0,0,0,0,0,0,0,0,0,0,0,0,0.0229,0.0229,0,0.0148,0.0147,0.0146,0.0087,0.0086,0.0086,0.0086,-0.0041,-0.0044,-0.0047,0,0,0,0,0,0,0,0,0,0,0,0,0,0.0273,0.0273,0.0229,0.0228,0.0228,0.0148,0.0147,0.0146,0.0087,0.0086,0.0086,0.0086,-0.004,-0.0043,-0.0047,0,0,0,0,0,0,0,0,0,0,0,0,0,0.0227,0.0273,0.0229,0.019,0.0186,0.0148,0.0147,0.0145,0.0087,0.0086,0.0086,0.0086,-0.0038,-0.0043,-0.0047,-0.0067,0,0,-0.0062,-0.0064,0,0,0,0,0,0,0,0,0.023,0.0226,0.0197,0.0193,0.0188,0.0129,0.0116,0.0073,0.0087,0.0122,0.0086,0.0085,0.0014,0.0005,-0.0012,-0.0073,-0.0078,-0.0062,-0.0065,-0.0067,-0.0068,0,0,0,0,0,0,0,0.0233,0.0228,0.0195,0.0196,0.0191,0.0156,0.0149,0.0107,0.0069,0.0119,0.0115,0.011,0.001,-0.0007,-0.0015,-0.008,-0.0062,-0.0066,-0.0069,-0.0071,-0.0166,-0.0166,0,0,0,0,0,0,0.0251,0.0232,0.0198,0.0193,0.0211,0.0156,0.0149,0.0147,0.007,0.0059,0.011,0.0107,0.0001,-0.001,-0.002,-0.0036,-0.0067,-0.0071,-0.0074,-0.0167,-0.0166,-0.0166,0,0,0,0,0,0,0.0253,0.0249,0.0201,0.0212,0.0203,0.0157,0.0154,0.0145,0.013,0.0064,0.0052,0.0104,0.0,-0.0014,-0.0049,-0.0042,-0.0073,-0.0077,-0.0167,-0.0167,-0.0166,-0.0075,0,0,0,0,0,0,0.0254,0.025,0.0254,0.0213,0.0204,0.019,0.0155,0.0144,0.0128,0.0123,0.0055,0.0043,-0.0001,-0.0042,-0.0054,-0.0048,-0.0081,-0.0167,-0.0167,-0.0166,-0.0078,-0.0071,-0.0065,0,0,0,0,0,0.0256,0.0272,0.0255,0.0251,0.0211,0.0191,0.0183,0.0146,0.0128,0.0129,0.0083,0.0045,-0.0048,-0.0045,-0.0059,-0.0055,-0.0167,-0.0167,-0.0166,-0.0081,-0.0072,-0.0066,0,0,0,0,0,0,0.0291,0.0266,0.0247,0.0253,0.0228,0.0182,0.0181,0.0154,0.0118,0.0114,0.0049,0.0033,0.0003,-0.0038,-0.0033,-0.0082,-0.0114,-0.0117,-0.0045,-0.0038,-0.0031,-0.0007,-0.0085,0,0,0,0,0,0.0302,0.0307,0.0273,0.0277,0.027,0.0225,0.0212,0.0189,0.0153,0.0136,0.0089,0.0038,-0.0006,-0.0029,-0.0074,-0.0098,-0.0136,-0.0106,-0.01,-0.0094,-0.0085,-0.0137,-0.0134,-0.0164,-0.0164,-0.0164,0,0,0.0316,0.0303,0.0305,0.0284,0.0262,0.0264,0.0216,0.0208,0.0205,0.0128,0.0112,0.0059,-0.0008,-0.0035,-0.0053,-0.0068,-0.0104,-0.0093,-0.0088,-0.0082,-0.0136,-0.0133,-0.013,-0.0164,-0.0164,-0.0164,0,0,0.0356,0.0337,0.0357,0.0344,0.0322,0.0296,0.0298,0.026,0.0239,0.0216,0.0159,0.0116,0.0052,0.0007,-0.0025,-0.0012,-0.0069,-0.003,0.0021,-0.0029,-0.0027,-0.0025,-0.0057,-0.0059,-0.0026,-0.0026,-0.0025,0,0.0373,0.0393,0.0359,0.0375,0.0374,0.0318,0.034,0.031,0.0264,0.0253,0.0225,0.013,0.0072,0.0034,0.0036,0.0003,-0.0029,0.0001,-0.0019,-0.0019,-0.0019,-0.0052,-0.0056,-0.0021,-0.0022,-0.0022,-0.0023,0,0.0428,0.0441,0.0454,0.0456,0.0448,0.0458,0.042,0.0406,0.0372,0.0338,0.0296,0.0215,0.0161,0.0131,0.0085,0.0057,0.0033,-0.0004,-0.0033,-0.001,-0.0047,-0.0052,-0.0015,-0.0016,-0.0018,-0.0019,0,0,0.0471,0.0491,0.0494,0.0515,0.0495,0.05,0.0495,0.0478,0.0483,0.0418,0.0413,0.0323,0.0276,0.0236,0.0168,0.0118,0.0088,0.0065,0.006,0.0045,-0.001,-0.002,-0.0027,0.0046,0.0045,0.0045,-0.0031,0,0.0524,0.0584,0.0571,0.062,0.0648,0.0604,0.0608,0.0582,0.0545,0.0525,0.0431,0.0398,0.0316,0.0294,0.023,0.0124,0.0076,0.0113,-0.004,-0.0044,-0.0047,-0.0033,0.0002,-0.0063,-0.0037,-0.0038,-0.0038,0,0.0581,0.0616,0.068,0.0715,0.0723,0.0735,0.0738,0.0732,0.0679,0.0654,0.0595,0.0524,0.0443,0.037,0.0207,0.0235,0.0125,0.0037,0.0031,-0.0013,-0.0063,-0.0086,-0.0074,-0.0273,-0.0047,-0.0046,-0.0046,0,0.0638,0.0691,0.0749,0.076,0.0784,0.0799,0.08,0.077,0.079,0.0732,0.0745,0.0624,0.0581,0.0423,0.0244,0.0225,0.0066,0.0014,-0.0098,-0.0099,-0.0117,-0.0119,-0.0306,-0.01,-0.0099,-0.0099,-0.0099,0,0.0699,0.0745,0.0782,0.0813,0.0883,0.0865,0.0923,0.09,0.0899,0.0938,0.0816,0.0826,0.0592,0.0474,0.0288,0.0092,0.0098,-0.008,-0.012,-0.0083,-0.0081,-0.0294,-0.0409,-0.0102,-0.0102,-0.0101,-0.01,0,0.0749,0.0771,0.0845,0.0893,0.0912,0.0956,0.1021,0.1064,0.1042,0.1088,0.1083,0.0985,0.0832,0.0597,0.0348,0.0172,-0.0141,-0.0104,-0.0034,-0.0064,-0.0356,-0.0465,-0.0696,-0.0781,-0.0238,-0.0239,-0.0239,0,0.078,0.0824,0.0909,0.0963,0.0988,0.1057,0.1113,0.1128,0.1193,0.1197,0.1239,0.1115,0.1063,0.0702,0.0359,0.0041,-0.016,-0.0141,-0.0181,-0.0362,-0.0514,-0.0599,-0.066,-0.0168,-0.0168,-0.0168,-0.0168,0,0.0845,0.0871,0.0936,0.1052,0.1127,0.1224,0.1308,0.139,0.1414,0.1469,0.1515,0.1474,0.1129,0.0829,0.0384,0.0153,-0.0272,-0.015,-0.0365,-0.0494,-0.0572,-0.0674,-0.0122,-0.0167,-0.0167,-0.0167,-0.0168,-0.0168,0.0895,0.0958,0.1048,0.116,0.1251,0.138,0.1478,0.1585,0.1711,0.181,0.1749,0.1749,0.1285,0.069,0.0332,-0.0273,-0.03,-0.0451,-0.0572,-0.0643,-0.0723,-0.0158,-0.0234,-0.0234,-0.0234,-0.0235,-0.0235,0,0.0974,0.1052,0.1156,0.1294,0.1409,0.1442,0.1609,0.1721,0.189,0.1998,0.2051,0.1869,0.1296,0.0701,-0.0121,-0.0585,-0.0763,-0.0853,-0.0977,-0.1023,-0.0541,-0.0534,-0.0643,-0.0643,-0.0643,-0.0643,-0.0643,-0.0642,0.1026,0.1146,0.1206,0.1413,0.1507,0.1672,0.1778,0.1935,0.2066,0.2229,0.2282,0.2288,0.185,0.0293,-0.0725,-0.097,-0.1318,-0.1419,-0.1593,-0.1278,-0.125,-0.1223,-0.1245,-0.1502,-0.1503,-0.1997,-0.2002,-0.2006]}],[{"header":{"parameterUnit":"m.s-1","parameterCategory":2,"la1":30.2991,"la2":30.254,"lo1":-89.0895,"lo2":-89.0444,"dy":0.0017,"dx":0.0017,"nx":28,"ny":28,"refTime":"2025-04-30T21:00:00:Z","depth":"2","parameterNumber":2,"parameterNumberName":"U-component_of_CURRENTS"},"data":[0,0,0,0,0,0,0,0,0,0,0,0,0,0,0,0,0,0,0,0,0,0,0,0,0,0,0,0,0,0,0,0,0,0,0,0,0,0,0,0,0,0,0,0,0,0,0,0,0,0,0,0,0,0,0,0,0,0,0.2886,0.2887,0,0.2935,0.2935,0.2935,0.2935,0.2934,0.2934,0.2934,0.2947,0.2948,0.2948,0,0,0,0,0,0,0,0,0,0,0,0,0,0.2805,0.2806,0.2886,0.2887,0.2888,0.2935,0.2935,0.2935,0.2935,0.2934,0.2934,0.2933,0.2947,0.2947,0.2948,0,0,0,0,0,0,0,0,0,0,0,0,0,0.2842,0.2806,0.2886,0.2896,0.2897,0.2935,0.2935,0.2936,0.2935,0.2934,0.2934,0.2933,0.2946,0.2947,0.2948,0.2965,0,0,0.2951,0.2952,0,0,0,0,0,0,0,0,0.284,0.2845,0.2893,0.2895,0.2897,0.2931,0.2912,0.2945,0.2935,0.2917,0.2934,0.2933,0.2941,0.2942,0.2948,0.2965,0.2966,0.2952,0.2952,0.2953,0.2953,0,0,0,0,0,0,0,0.2837,0.2843,0.2902,0.2894,0.2897,0.2902,0.2907,0.2918,0.2928,0.2918,0.2919,0.293,0.2941,0.2947,0.2949,0.2966,0.2952,0.2952,0.2953,0.2953,0.304,0.3041,0,0,0,0,0,0,0.2839,0.284,0.29,0.2903,0.2871,0.2904,0.2909,0.2918,0.2928,0.2931,0.2931,0.293,0.2946,0.2947,0.2949,0.3008,0.2953,0.2954,0.2954,0.3038,0.304,0.3042,0,0,0,0,0,0,0.2837,0.2843,0.2898,0.2876,0.2884,0.2907,0.2916,0.2919,0.2935,0.2939,0.294,0.2945,0.2946,0.2948,0.2976,0.3007,0.2954,0.2955,0.3036,0.3039,0.3041,0.3101,0,0,0,0,0,0,0.2834,0.2842,0.2851,0.2876,0.2885,0.2934,0.2917,0.2921,0.2943,0.2943,0.2951,0.2952,0.2945,0.2975,0.2977,0.3007,0.2956,0.3034,0.3037,0.304,0.3097,0.3105,0.3112,0,0,0,0,0,0.2831,0.2845,0.2851,0.2859,0.2896,0.2936,0.2941,0.2953,0.2945,0.2962,0.2968,0.2952,0.2996,0.2977,0.2979,0.301,0.3032,0.3036,0.304,0.3093,0.3103,0.3112,0,0,0,0,0,0,0.2811,0.2848,0.2854,0.2878,0.2912,0.2937,0.2956,0.2962,0.298,0.2979,0.2972,0.2974,0.3013,0.3005,0.2984,0.3046,0.3012,0.3017,0.3052,0.3062,0.3069,0.3063,0.2956,0,0,0,0,0,0.2813,0.2836,0.2871,0.2893,0.2911,0.2935,0.2953,0.2964,0.2984,0.2991,0.2998,0.3008,0.3031,0.304,0.3056,0.3087,0.3092,0.3109,0.3117,0.3124,0.3122,0.3163,0.3174,0.3054,0.3054,0.3054,0,0,0.281,0.2836,0.2847,0.2891,0.2915,0.2949,0.2944,0.298,0.3006,0.299,0.3024,0.3038,0.3047,0.3086,0.3102,0.3082,0.3165,0.3128,0.3134,0.3128,0.3168,0.318,0.319,0.3057,0.3057,0.3056,0,0,0.2821,0.2843,0.2867,0.29,0.2947,0.2966,0.298,0.3016,0.3032,0.307,0.307,0.3101,0.3127,0.3143,0.3153,0.3213,0.3208,0.3223,0.3254,0.3295,0.3305,0.3313,0.335,0.3362,0.3223,0.3223,0.3223,0,0.2817,0.2848,0.2881,0.2917,0.2944,0.2975,0.3006,0.3036,0.3075,0.3095,0.3088,0.3149,0.3154,0.3206,0.3227,0.323,0.3252,0.3216,0.3304,0.3313,0.3321,0.3356,0.3368,0.3226,0.3226,0.3225,0.3225,0,0.2847,0.2875,0.2896,0.2948,0.2984,0.3019,0.3065,0.3101,0.3121,0.3145,0.3204,0.3222,0.3254,0.3269,0.3265,0.3331,0.3329,0.3313,0.3278,0.3336,0.337,0.3382,0.3231,0.323,0.3229,0.3228,0,0,0.2819,0.2899,0.2903,0.2928,0.3001,0.3028,0.3089,0.3146,0.3181,0.3226,0.3273,0.3318,0.333,0.3342,0.3351,0.3383,0.3462,0.3374,0.3374,0.3406,0.356,0.3547,0.3558,0.3466,0.3468,0.347,0.3566,0,0.2826,0.2881,0.2926,0.2976,0.3006,0.3065,0.3112,0.3172,0.3223,0.3281,0.332,0.3368,0.3358,0.3381,0.3418,0.3455,0.3492,0.3437,0.3502,0.3503,0.3481,0.3571,0.3304,0.3367,0.3577,0.3579,0.358,0,0.283,0.2868,0.2912,0.2981,0.3,0.3035,0.3117,0.3168,0.3266,0.3309,0.3377,0.3414,0.3486,0.3459,0.3555,0.3525,0.3546,0.3566,0.357,0.354,0.3512,0.334,0.3379,0.3599,0.3597,0.3596,0.3595,0,0.2774,0.2851,0.2878,0.2905,0.2993,0.3023,0.3071,0.3168,0.3232,0.3333,0.3399,0.3474,0.3534,0.3575,0.3634,0.3602,0.3736,0.3691,0.3699,0.3698,0.3473,0.345,0.3751,0.375,0.375,0.375,0.375,0,0.2751,0.2771,0.285,0.2865,0.2901,0.2979,0.3037,0.3105,0.3229,0.33,0.3403,0.3484,0.3568,0.366,0.3675,0.3745,0.3775,0.3726,0.3732,0.349,0.3468,0.3658,0.3646,0.3754,0.3753,0.3752,0.3751,0,0.2678,0.2732,0.2763,0.2846,0.2872,0.2894,0.3018,0.3067,0.3198,0.3304,0.3346,0.3528,0.3642,0.3729,0.3817,0.381,0.3858,0.3866,0.3585,0.3556,0.3777,0.3767,0.388,0.3881,0.3881,0.3882,0.3882,0,0.2643,0.2654,0.2727,0.2745,0.2778,0.2836,0.2876,0.302,0.3091,0.3315,0.336,0.3546,0.3648,0.3818,0.3831,0.3885,0.3908,0.3658,0.3541,0.3802,0.3795,0.3785,0.3774,0.3266,0.3261,0.3257,0.3254,0,0.2581,0.2605,0.2634,0.2672,0.2706,0.2748,0.2826,0.2888,0.3052,0.3173,0.3333,0.345,0.3637,0.3603,0.3711,0.3689,0.3628,0.3584,0.3932,0.3289,0.3234,0.3225,0.3232,0.322,0.3223,0.3226,0.3228,0.3229,0.2535,0.2538,0.2583,0.2606,0.2634,0.2653,0.2659,0.2763,0.2871,0.3011,0.3189,0.3272,0.3371,0.3414,0.3342,0.3291,0.353,0.3363,0.3369,0.3381,0.3308,0.3258,0.3234,0.3237,0.324,0.3243,0.3245,0,0.2508,0.2522,0.2526,0.2543,0.2518,0.2576,0.2619,0.2608,0.2671,0.2822,0.2947,0.2813,0.2854,0.2924,0.282,0.2866,0.2769,0.2732,0.2567,0.2609,0.2645,0.2524,0.2247,0.2243,0.2239,0.2236,0,0,0.2509,0.2499,0.2492,0.2433,0.2435,0.2382,0.2382,0.2375,0.244,0.2462,0.2495,0.2744,0.2882,0.2516,0.2507,0.235,0.2437,0.2261,0.3081,0.2932,0.296,0.3057,0.293,0,0,0,0,0]},{"header":{"parameterUnit":"m.s-1","parameterCategory":2,"la1":30.2991,"la2":30.254,"lo1":-89.0895,"lo2":-89.0444,"dy":0.0017,"dx":0.0017,"nx":28,"ny":28,"refTime":"2025-04-30T21:00:00:Z","depth":"2","parameterNumber":3,"parameterNumberName":"V-component_of_CURRENTS"},"data":[0,0,0,0,0,0,0,0,0,0,0,0,0,0,0,0,0,0,0,0,0,0,0,0,0,0,0,0,0,0,0,0,0,0,0,0,0,0,0,0,0,0,0,0,0,0,0,0,0,0,0,0,0,0,0,0,0,0,0.0129,0.0129,0,0.0054,0.0053,0.0052,-0.0003,-0.0003,-0.0003,-0.0004,-0.0124,-0.0127,-0.013,0,0,0,0,0,0,0,0,0,0,0,0,0,0.0168,0.0168,0.013,0.0129,0.0128,0.0054,0.0053,0.0052,-0.0003,-0.0003,-0.0004,-0.0004,-0.0123,-0.0126,-0.013,0,0,0,0,0,0,0,0,0,0,0,0,0,0.0126,0.0168,0.013,0.0093,0.009,0.0054,0.0053,0.0051,-0.0003,-0.0003,-0.0004,-0.0004,-0.0122,-0.0126,-0.013,-0.0149,0,0,-0.0144,-0.0146,0,0,0,0,0,0,0,0,0.0129,0.0125,0.0099,0.0096,0.0091,0.0036,0.0023,-0.0017,-0.0003,0.003,-0.0004,-0.0004,-0.0073,-0.0081,-0.0097,-0.0155,-0.016,-0.0144,-0.0147,-0.0149,-0.015,0,0,0,0,0,0,0,0.0132,0.0127,0.0098,0.0099,0.0094,0.0061,0.0055,0.0014,-0.002,0.0027,0.0024,0.0018,-0.0076,-0.0092,-0.01,-0.0162,-0.0144,-0.0148,-0.0151,-0.0152,-0.0243,-0.0243,0,0,0,0,0,0,0.0149,0.0131,0.01,0.0096,0.0112,0.0061,0.0054,0.0053,-0.0019,-0.003,0.0019,0.0016,-0.0085,-0.0095,-0.0104,-0.0118,-0.0149,-0.0153,-0.0155,-0.0243,-0.0243,-0.0243,0,0,0,0,0,0,0.015,0.0147,0.0103,0.0112,0.0105,0.0062,0.006,0.0052,0.0038,-0.0025,-0.0036,0.0014,-0.0085,-0.0098,-0.0132,-0.0124,-0.0155,-0.0159,-0.0244,-0.0243,-0.0243,-0.0154,0,0,0,0,0,0,0.0151,0.0148,0.0153,0.0114,0.0105,0.0094,0.006,0.005,0.0036,0.0032,-0.0032,-0.0044,-0.0087,-0.0125,-0.0136,-0.013,-0.0162,-0.0244,-0.0243,-0.0243,-0.0157,-0.015,-0.0145,0,0,0,0,0,0.0153,0.0169,0.0153,0.015,0.0113,0.0095,0.0088,0.0053,0.0036,0.0037,-0.0006,-0.0042,-0.013,-0.0128,-0.0141,-0.0137,-0.0244,-0.0243,-0.0243,-0.016,-0.0152,-0.0145,0,0,0,0,0,0,0.0187,0.0164,0.0146,0.0153,0.0129,0.0087,0.0086,0.0061,0.0027,0.0024,-0.0038,-0.0053,-0.0081,-0.012,-0.0116,-0.0162,-0.0194,-0.0196,-0.0126,-0.0119,-0.0113,-0.009,-0.0166,0,0,0,0,0,0.0198,0.0203,0.0171,0.0176,0.0169,0.0128,0.0116,0.0095,0.006,0.0045,0.0001,-0.0048,-0.009,-0.0112,-0.0154,-0.0177,-0.0215,-0.0184,-0.0178,-0.0172,-0.0164,-0.0215,-0.0213,-0.0241,-0.0241,-0.0241,0,0,0.0212,0.02,0.0202,0.0183,0.0162,0.0165,0.012,0.0113,0.0111,0.0037,0.0023,-0.0027,-0.0091,-0.0117,-0.0133,-0.0148,-0.0183,-0.0172,-0.0166,-0.0161,-0.0214,-0.0212,-0.0209,-0.0241,-0.0241,-0.0241,0,0,0.025,0.0233,0.0253,0.0241,0.0221,0.0196,0.0199,0.0164,0.0145,0.0124,0.0069,0.0029,-0.0032,-0.0075,-0.0106,-0.0092,-0.0148,-0.0109,-0.006,-0.011,-0.0107,-0.0106,-0.0139,-0.0142,-0.0105,-0.0105,-0.0105,0,0.0267,0.0287,0.0255,0.0271,0.027,0.0218,0.024,0.0212,0.0169,0.0158,0.0133,0.0042,-0.0012,-0.005,-0.0047,-0.0078,-0.011,-0.0079,-0.01,-0.01,-0.01,-0.0135,-0.0138,-0.0101,-0.0101,-0.0102,-0.0102,0,0.032,0.0334,0.0346,0.0349,0.0343,0.0353,0.0317,0.0304,0.0273,0.0242,0.0202,0.0125,0.0073,0.0045,0.0002,-0.0026,-0.0049,-0.0085,-0.0113,-0.0091,-0.013,-0.0135,-0.0094,-0.0096,-0.0097,-0.0098,0,0,0.0362,0.0382,0.0386,0.0406,0.0388,0.0393,0.039,0.0373,0.0377,0.0318,0.0312,0.0227,0.0183,0.0145,0.008,0.0032,0.0001,-0.0019,-0.0023,-0.0041,-0.0097,-0.011,-0.0117,-0.0038,-0.0039,-0.004,-0.0118,0,0.0413,0.0471,0.046,0.0508,0.0535,0.0494,0.0498,0.0473,0.0438,0.0418,0.0329,0.0298,0.0221,0.02,0.0139,0.0036,-0.0011,0.0027,-0.0125,-0.0129,-0.0135,-0.0123,-0.0095,-0.0163,-0.0124,-0.0125,-0.0126,0,0.0468,0.0502,0.0564,0.0598,0.0606,0.0619,0.0622,0.0617,0.0565,0.054,0.0484,0.0417,0.0338,0.027,0.0111,0.014,0.0035,-0.0051,-0.0057,-0.0103,-0.0152,-0.0183,-0.0175,-0.0136,-0.0135,-0.0134,-0.0134,0,0.0523,0.0575,0.0631,0.0642,0.0665,0.0681,0.0682,0.0653,0.0672,0.0615,0.0626,0.0508,0.0466,0.0315,0.0143,0.0127,-0.0032,-0.0079,-0.019,-0.0192,-0.0215,-0.0217,-0.019,-0.0189,-0.0189,-0.0189,-0.0189,0,0.0582,0.0626,0.0663,0.0694,0.0761,0.0745,0.0801,0.0778,0.0774,0.0809,0.0694,0.0699,0.0476,0.036,0.0182,-0.0009,-0.0003,-0.0175,-0.0214,-0.0182,-0.0181,-0.0199,-0.0199,-0.0192,-0.0191,-0.0191,-0.019,0,0.0629,0.0651,0.0723,0.077,0.079,0.0833,0.0895,0.0935,0.0913,0.0953,0.0948,0.0847,0.0695,0.0471,0.0229,0.0062,-0.0135,-0.0207,-0.0144,-0.0175,-0.0272,-0.0267,-0.0338,-0.0339,-0.034,-0.0341,-0.0342,0,0.0659,0.0701,0.0785,0.0837,0.0861,0.0929,0.0982,0.0996,0.1053,0.1052,0.1087,0.0964,0.0902,0.0549,0.0223,-0.0082,-0.0128,-0.0257,-0.0292,-0.0257,-0.0288,-0.0281,-0.0275,-0.0286,-0.0286,-0.0286,-0.0286,0,0.0715,0.0742,0.0803,0.0915,0.0988,0.1083,0.1162,0.1236,0.1255,0.1302,0.1331,0.1282,0.0946,0.0638,0.0214,0.0007,-0.0209,-0.0269,-0.0256,-0.0247,-0.0213,-0.0242,-0.0236,-0.0288,-0.0287,-0.0287,-0.0287,-0.0287,0.0754,0.0811,0.0895,0.0999,0.1096,0.1219,0.1308,0.1407,0.1517,0.1587,0.1524,0.1458,0.1083,0.0555,0.0176,-0.0219,-0.0205,-0.0344,-0.0342,-0.034,-0.0314,-0.0283,-0.0365,-0.0365,-0.0366,-0.0366,-0.0366,0,0.0801,0.0872,0.0975,0.1103,0.1216,0.1263,0.142,0.1511,0.1656,0.1719,0.1746,0.1402,0.1049,0.0624,0.0036,-0.0314,-0.0339,-0.0416,-0.0379,-0.0375,-0.0372,-0.0347,-0.0408,-0.0409,-0.041,-0.0411,0,0,0.083,0.0929,0.0984,0.1173,0.1276,0.1434,0.1533,0.1668,0.1757,0.1828,0.1799,0.1713,0.1185,0.0754,0.0265,-0.0074,-0.0135,-0.0132,-0.0059,0.0047,0.0055,-0.0293,-0.0245,0,0,0,0,0]}],[{"header":{"parameterUnit":"m.s-1","parameterCategory":2,"la1":30.2991,"la2":30.254,"lo1":-89.0895,"lo2":-89.0444,"dy":0.0017,"dx":0.0017,"nx":28,"ny":28,"refTime":"2025-04-30T21:00:00:Z","depth":"4","parameterNumber":2,"parameterNumberName":"U-component_of_CURRENTS"},"data":[0,0,0,0,0,0,0,0,0,0,0,0,0,0,0,0,0,0,0,0,0,0,0,0,0,0,0,0,0,0,0,0,0,0,0,0,0,0,0,0,0,0,0,0,0,0,0,0,0,0,0,0,0,0,0,0,0,0,0.1913,0.1914,0,0.2004,0.2005,0.2006,0.2074,0.2075,0.2076,0.2077,0.2176,0.2178,0.218,0,0,0,0,0,0,0,0,0,0,0,0,0,0.1798,0.1799,0.1913,0.1914,0.1916,0.2004,0.2005,0.2006,0.2074,0.2075,0.2076,0.2077,0.2175,0.2178,0.218,0,0,0,0,0,0,0,0,0,0,0,0,0,0.1862,0.18,0.1913,0.1962,0.1968,0.2004,0.2005,0.2006,0.2074,0.2075,0.2076,0.2078,0.2175,0.2177,0.218,0.2172,0,0,0.2189,0.219,0,0,0,0,0,0,0,0,0.1858,0.1866,0.1953,0.1959,0.1965,0.2031,0.2001,0.2063,0.2074,0.2031,0.2077,0.2078,0.2129,0.2136,0.2146,0.2177,0.2181,0.2189,0.2191,0.2192,0.2193,0,0,0,0,0,0,0,0.1853,0.1862,0.1947,0.1955,0.1962,0.198,0.199,0.2013,0.207,0.2035,0.2041,0.2054,0.2132,0.2143,0.2149,0.2182,0.2189,0.2191,0.2193,0.2194,0.2339,0.2341,0,0,0,0,0,0,0.1846,0.1858,0.1944,0.195,0.1916,0.1981,0.1992,0.2007,0.207,0.2081,0.2053,0.2057,0.2138,0.2146,0.2153,0.2265,0.2192,0.2194,0.2196,0.2337,0.2339,0.2342,0,0,0,0,0,0,0.1843,0.1853,0.194,0.1908,0.192,0.1982,0.1997,0.2008,0.2062,0.2084,0.2095,0.2101,0.2139,0.2149,0.2217,0.2265,0.2196,0.2198,0.2334,0.2338,0.2341,0.2413,0,0,0,0,0,0,0.1839,0.1851,0.1878,0.1907,0.1922,0.199,0.1997,0.2009,0.2067,0.2074,0.2128,0.2136,0.2141,0.2213,0.222,0.2267,0.22,0.2331,0.2336,0.234,0.2408,0.2418,0.2427,0,0,0,0,0,0.1835,0.1859,0.1878,0.189,0.195,0.1991,0.2001,0.2046,0.2068,0.2098,0.2141,0.2137,0.2243,0.2217,0.2224,0.2274,0.2329,0.2334,0.2339,0.2403,0.2416,0.2427,0,0,0,0,0,0,0.1823,0.1869,0.1891,0.1929,0.1972,0.2005,0.2043,0.2068,0.2125,0.2146,0.2163,0.2174,0.2252,0.2252,0.2222,0.2328,0.2286,0.2293,0.2333,0.2345,0.2354,0.2345,0.2203,0,0,0,0,0,0.1832,0.1867,0.1907,0.1945,0.1969,0.2013,0.2044,0.2075,0.2119,0.2147,0.2186,0.2229,0.2269,0.23,0.2332,0.2387,0.2386,0.2425,0.2435,0.2443,0.2442,0.2485,0.2498,0.2358,0.2358,0.2358,0,0,0.1838,0.187,0.1892,0.1947,0.1985,0.2026,0.2036,0.2095,0.214,0.2147,0.2235,0.2267,0.2292,0.236,0.2394,0.2372,0.2486,0.2449,0.2456,0.2451,0.2491,0.2504,0.2516,0.2361,0.236,0.236,0,0,0.1855,0.19,0.1932,0.1972,0.2038,0.2064,0.209,0.2149,0.2193,0.2266,0.2288,0.235,0.2413,0.2442,0.246,0.2541,0.2535,0.2562,0.2607,0.2649,0.266,0.267,0.2696,0.2708,0.2568,0.2568,0.2568,0,0.1866,0.1908,0.1949,0.1991,0.2031,0.2085,0.2128,0.2175,0.2254,0.2294,0.2308,0.2422,0.2447,0.252,0.2554,0.2563,0.2582,0.2559,0.2661,0.267,0.2679,0.2703,0.2715,0.2572,0.2571,0.2571,0.2571,0,0.1894,0.1946,0.1972,0.2041,0.2089,0.2139,0.2202,0.2268,0.2326,0.2368,0.2471,0.2512,0.2577,0.2602,0.2605,0.269,0.2682,0.2667,0.2627,0.2698,0.2718,0.2729,0.2578,0.2576,0.2575,0.2574,0,0,0.1865,0.197,0.1984,0.2027,0.2123,0.2158,0.2247,0.2328,0.239,0.2476,0.2554,0.2634,0.2667,0.269,0.2713,0.2752,0.2837,0.2746,0.2746,0.2764,0.2932,0.2767,0.2763,0.2848,0.285,0.2852,0.2924,0,0.1879,0.1954,0.2009,0.2092,0.2136,0.2219,0.229,0.2376,0.2456,0.2546,0.2612,0.2694,0.2698,0.2745,0.2789,0.283,0.2869,0.2819,0.2867,0.2868,0.2706,0.2771,0.2859,0.2932,0.2934,0.2936,0.2937,0,0.1878,0.1933,0.2011,0.2119,0.2147,0.221,0.2335,0.2407,0.2536,0.2601,0.2698,0.2753,0.2848,0.283,0.2934,0.2909,0.2929,0.2945,0.2948,0.2771,0.2722,0.2845,0.2957,0.2955,0.2954,0.2953,0.2951,0,0.1816,0.193,0.1993,0.2033,0.2161,0.2224,0.2301,0.2429,0.2509,0.2647,0.2724,0.2826,0.2904,0.295,0.3006,0.2985,0.3098,0.3065,0.2932,0.2921,0.3015,0.3003,0.3124,0.3124,0.3124,0.3124,0.3124,0,0.1785,0.1841,0.1977,0.2011,0.2096,0.22,0.2305,0.2397,0.2544,0.2625,0.2753,0.2828,0.2944,0.3024,0.304,0.3023,0.3131,0.2944,0.2929,0.3045,0.3037,0.3023,0.301,0.3127,0.3126,0.3126,0.3125,0,0.1703,0.1793,0.1873,0.2017,0.2069,0.2131,0.2308,0.2375,0.2531,0.2646,0.2701,0.2872,0.2958,0.3049,0.3128,0.3055,0.3057,0.3022,0.3154,0.3146,0.284,0.2831,0.2863,0.2857,0.2853,0.2849,0.2846,0,0.1663,0.1698,0.1858,0.1908,0.1982,0.2098,0.217,0.2345,0.2418,0.264,0.2674,0.2838,0.292,0.2909,0.3007,0.3025,0.2994,0.2973,0.2883,0.2831,0.2815,0.2813,0.281,0.2839,0.2838,0.2837,0.2836,0,0.1585,0.1659,0.1725,0.1828,0.1916,0.2001,0.2122,0.2167,0.235,0.2518,0.2584,0.264,0.2737,0.2791,0.2839,0.2843,0.2968,0.2925,0.2933,0.2849,0.2803,0.2791,0.2793,0.282,0.2823,0.2824,0.2825,0,0.1531,0.1552,0.165,0.1725,0.183,0.1873,0.1954,0.2037,0.2135,0.2369,0.2378,0.2546,0.2695,0.2699,0.2738,0.2737,0.2687,0.2588,0.2613,0.2631,0.2523,0.2429,0.2322,0,0,0,0,0,0.1463,0.1471,0.1537,0.1608,0.1707,0.1767,0.1906,0.199,0.2165,0.2147,0.226,0.2329,0.2396,0.2492,0.2444,0.2644,0.2703,0.2578,0.2603,0.2735,0.2753,0.2648,0,0,0,0,0,0,0.1412,0.1467,0.149,0.1498,0.1523,0.1611,0.1692,0.1809,0.1816,0.1999,0.205,0.2187,0.2292,0.2392,0.2396,0.2425,0.2394,0.2688,0.2682,0.2725,0.2741,0.2756,0.2654,0,0,0,0,0]},{"header":{"parameterUnit":"m.s-1","parameterCategory":2,"la1":30.2991,"la2":30.254,"lo1":-89.0895,"lo2":-89.0444,"dy":0.0017,"dx":0.0017,"nx":28,"ny":28,"refTime":"2025-04-30T21:00:00:Z","depth":"4","parameterNumber":3,"parameterNumberName":"V-component_of_CURRENTS"},"data":[0,0,0,0,0,0,0,0,0,0,0,0,0,0,0,0,0,0,0,0,0,0,0,0,0,0,0,0,0,0,0,0,0,0,0,0,0,0,0,0,0,0,0,0,0,0,0,0,0,0,0,0,0,0,0,0,0,0,0.0058,0.0058,0,0.0008,0.0008,0.0007,-0.0034,-0.0034,-0.0034,-0.0034,-0.0128,-0.013,-0.0132,0,0,0,0,0,0,0,0,0,0,0,0,0,0.0076,0.0076,0.0058,0.0058,0.0057,0.0008,0.0007,0.0007,-0.0034,-0.0034,-0.0034,-0.0035,-0.0127,-0.0129,-0.0132,0,0,0,0,0,0,0,0,0,0,0,0,0,0.005,0.0076,0.0058,0.0032,0.0029,0.0008,0.0007,0.0006,-0.0033,-0.0034,-0.0034,-0.0035,-0.0126,-0.0129,-0.0132,-0.0144,0,0,-0.0143,-0.0144,0,0,0,0,0,0,0,0,0.0052,0.005,0.0036,0.0034,0.0031,-0.0006,-0.002,-0.0046,-0.0033,-0.0011,-0.0034,-0.0035,-0.009,-0.0096,-0.0106,-0.0149,-0.0153,-0.0143,-0.0145,-0.0146,-0.0147,0,0,0,0,0,0,0,0.0054,0.0051,0.0037,0.0036,0.0033,0.0009,0.0005,-0.0025,-0.0049,-0.0013,-0.0016,-0.0019,-0.0092,-0.0102,-0.0108,-0.0154,-0.0143,-0.0146,-0.0148,-0.0149,-0.0218,-0.0218,0,0,0,0,0,0,0.0066,0.0053,0.0038,0.0036,0.0042,0.0009,0.0004,0.0005,-0.0048,-0.0056,-0.0018,-0.0021,-0.0097,-0.0104,-0.0112,-0.0122,-0.0146,-0.0149,-0.0151,-0.0218,-0.0218,-0.0218,0,0,0,0,0,0,0.0066,0.0065,0.004,0.0044,0.0039,0.001,0.0011,0.0005,-0.0005,-0.0051,-0.006,-0.0022,-0.0097,-0.0107,-0.0132,-0.0126,-0.0151,-0.0154,-0.0219,-0.0218,-0.0218,-0.0146,0,0,0,0,0,0,0.0067,0.0066,0.007,0.0045,0.004,0.0037,0.0011,0.0004,-0.0006,-0.0009,-0.0057,-0.0066,-0.0098,-0.0127,-0.0135,-0.0131,-0.0157,-0.0219,-0.0219,-0.0218,-0.0149,-0.0144,-0.0139,0,0,0,0,0,0.0068,0.0082,0.0071,0.0069,0.0047,0.0038,0.0033,0.0008,-0.0005,-0.0003,-0.0036,-0.0065,-0.0132,-0.0129,-0.0139,-0.0136,-0.0219,-0.0219,-0.0218,-0.0151,-0.0145,-0.0139,0,0,0,0,0,0,0.0091,0.0078,0.0066,0.0074,0.0059,0.0032,0.0033,0.0014,-0.001,-0.0014,-0.0061,-0.0072,-0.0093,-0.0124,-0.0121,-0.0156,-0.0181,-0.0183,-0.0126,-0.0121,-0.0116,-0.0099,-0.0159,0,0,0,0,0,0.0099,0.0106,0.0086,0.0092,0.0088,0.006,0.0053,0.0038,0.0014,0.0003,-0.003,-0.0068,-0.01,-0.0117,-0.0149,-0.0165,-0.0199,-0.0172,-0.0167,-0.0162,-0.0155,-0.0202,-0.02,-0.0217,-0.0217,-0.0217,0,0,0.011,0.0103,0.0107,0.0097,0.0084,0.0089,0.0055,0.0052,0.0053,-0.0004,-0.0012,-0.0051,-0.0101,-0.0119,-0.0131,-0.0144,-0.0174,-0.0162,-0.0157,-0.0153,-0.0201,-0.02,-0.0198,-0.0217,-0.0217,-0.0217,0,0,0.014,0.013,0.0147,0.014,0.0129,0.0113,0.0116,0.0093,0.0079,0.0066,0.0024,-0.0008,-0.0052,-0.0086,-0.0111,-0.0099,-0.0147,-0.0112,-0.0073,-0.0118,-0.0117,-0.0116,-0.015,-0.0153,-0.0109,-0.0109,-0.0109,0,0.0152,0.017,0.015,0.0164,0.0167,0.0129,0.0148,0.013,0.0101,0.0093,0.0074,0.0005,-0.0037,-0.0067,-0.0063,-0.0088,-0.0117,-0.0089,-0.0111,-0.0111,-0.0111,-0.0146,-0.015,-0.0106,-0.0106,-0.0107,-0.0107,0,0.0193,0.0207,0.0218,0.0225,0.0224,0.0235,0.0212,0.0204,0.0182,0.016,0.013,0.007,0.003,0.0008,-0.0024,-0.0049,-0.007,-0.0097,-0.0121,-0.0105,-0.0143,-0.0149,-0.0101,-0.0102,-0.0103,-0.0104,0,0,0.0221,0.0244,0.0248,0.0266,0.0259,0.0266,0.0268,0.0259,0.0263,0.022,0.0216,0.0152,0.0117,0.0087,0.0036,-0.0006,-0.0037,-0.0046,-0.005,-0.0071,-0.0128,-0.013,-0.0137,-0.0069,-0.0069,-0.007,-0.015,0,0.0259,0.0307,0.0305,0.0347,0.037,0.0345,0.0353,0.0338,0.0313,0.0298,0.0228,0.0205,0.0148,0.0131,0.0079,-0.0007,-0.005,-0.0012,-0.0148,-0.0151,-0.0149,-0.0143,-0.0072,-0.0154,-0.0155,-0.0156,-0.0157,0,0.0298,0.0327,0.0381,0.0416,0.0424,0.0441,0.0449,0.0449,0.0412,0.0394,0.0349,0.0297,0.0232,0.0181,0.0044,0.0071,-0.0018,-0.009,-0.0095,-0.0125,-0.0164,-0.0178,-0.0168,-0.0167,-0.0166,-0.0166,-0.0165,0,0.0331,0.038,0.0428,0.044,0.0469,0.0487,0.0496,0.0479,0.0495,0.0453,0.046,0.0365,0.0329,0.0203,0.006,0.0051,-0.0093,-0.0127,-0.0213,-0.0215,-0.0221,-0.0221,-0.0223,-0.0223,-0.0223,-0.0223,-0.0223,0,0.0368,0.0407,0.0451,0.0477,0.0537,0.0536,0.0586,0.0573,0.0574,0.0599,0.0515,0.0507,0.0333,0.0232,0.0086,-0.0073,-0.0075,-0.0202,-0.0235,-0.0188,-0.0184,-0.0225,-0.0224,-0.0226,-0.0225,-0.0225,-0.0224,0,0.039,0.0419,0.0481,0.0532,0.0555,0.0594,0.0659,0.069,0.0681,0.0709,0.0705,0.0617,0.0482,0.0305,0.0099,-0.0023,-0.0187,-0.0246,-0.0166,-0.0195,-0.0286,-0.028,-0.0347,-0.0348,-0.0349,-0.0349,-0.035,0,0.0404,0.0439,0.0523,0.0569,0.0597,0.0663,0.0712,0.0736,0.0776,0.0775,0.0791,0.0686,0.0601,0.0328,0.0121,-0.015,-0.0197,-0.0281,-0.03,-0.0273,-0.0299,-0.0292,-0.0286,-0.0351,-0.0351,-0.0351,-0.0351,0,0.0425,0.0457,0.0508,0.0606,0.0674,0.0759,0.0829,0.0873,0.0898,0.0902,0.0871,0.0727,0.0574,0.0342,0.0135,-0.0067,-0.0227,-0.0289,-0.0289,-0.0308,-0.0278,-0.0301,-0.0295,-0.0353,-0.0353,-0.0353,-0.0353,0,0.0433,0.0471,0.0541,0.0626,0.0727,0.0818,0.0862,0.0914,0.0955,0.0954,0.094,0.0769,0.0671,0.0385,0.0191,-0.0002,-0.0064,-0.0138,-0.0148,-0.0148,-0.0076,-0.0008,-0.0023,0,0,0,0,0,0.0427,0.0465,0.0553,0.0648,0.076,0.0815,0.0923,0.096,0.0997,0.0989,0.0969,0.0826,0.0543,0.0423,0.0231,0.0153,-0.0114,-0.0083,-0.0207,-0.0365,-0.0363,-0.0313,0,0,0,0,0,0,0.0415,0.0486,0.0537,0.0658,0.0727,0.0845,0.0918,0.0949,0.0952,0.096,0.0823,0.0756,0.0489,0.0647,0.0217,0.0158,0.0049,-0.0211,-0.0215,-0.0367,-0.0364,-0.0362,-0.0311,0,0,0,0,0]}]]